Voltar ao catálogo

TITAN 3C TRANSTAGE DEB

LostMEO
NORAD 8832·DEBRIS·🇺🇸 United States

Lançado Mar 15, 1976 de Cape Canaveral Space Force Station

Loading…

Próximas Passagens (próximas 24 horas)

TLE

ObsoletoSource: Space-Track

Época: Jul 25, 2026, 06:18 UTC

1 08832U 76023J   26206.26288565 -.00000047  00000-0  00000-0 0  9999
2 08832  21.9310  42.2307 0139481  99.7415 137.4545  0.98258649117973

Acompanhe TITAN 3C TRANSTAGE DEB em tempo real com AllMySat

Download on the App Store